Location: Madrid
(40.4000°N, 3.6830°W)
Time: 18:52:10
(UTC+01:00)

Hubble Space Telescope - Visible Passes

Search period start: 21 January 2021 00:00
Search period end: 31 January 2021 00:00
Orbit: 536 x 539 km, 28.5° (Epoch: 20 January)

Date Brightness Start Highest point End Pass type
(mag) Time Alt. Az. Time Alt. Az. Time Alt. Az.
21 Jan 3.2 18:51:41 10° SSW 18:53:37 13° S 18:55:34 10° SE visible
21 Jan 3.1 20:31:36 10° SW 20:33:56 15° S 20:33:56 15° S visible
22 Jan 3.1 20:20:45 10° SW 20:23:06 15° S 20:23:50 14° S visible
23 Jan 3.2 20:09:58 10° SW 20:12:08 14° S 20:13:47 12° SSE visible
24 Jan 3.3 19:59:17 10° SW 20:01:11 13° S 20:03:05 10° SSE visible
25 Jan 3.5 19:48:46 10° SSW 19:50:13 12° SSW 19:51:40 10° S visible
26 Jan 3.7 19:38:46 10° SSW 19:39:15 10° SSW 19:39:44 10° S visible
